| time (UTC) | temp F | wind direction | speed knots | gust knots | rain 1hr in | rain 24hr in | rain mn in | humidity % | barometer mb |
| 20260504184503 | 66 | 304 | 10.4 | 21.7 | 0.00 | 0.00 | 0.00 | 34 | 1007.6 |
| 20260504183504 | 66 | 286 | 6.1 | 21.7 | 0.00 | 0.00 | 0.00 | 33 | 1007.8 |
| 20260504182504 | 66 | 298 | 8.7 | 18.2 | 0.00 | 0.00 | 0.00 | 32 | 1007.9 |
| 20260504181503 | 66 | 291 | 5.2 | 21.7 | 0.00 | 0.00 | 0.00 | 34 | 1007.9 |
| 20260504180503 | 64 | 297 | 10.4 | 21.7 | 0.00 | 0.00 | 0.00 | 33 | 1008.1 |
| 20260504175504 | 65 | 292 | 11.3 | 18.2 | 0.00 | 0.00 | 0.00 | 33 | 1008.0 |
| 20260504174504 | 64 | 293 | 10.4 | 24.3 | 0.00 | 0.00 | 0.00 | 33 | 1008.1 |
| 20260504173503 | 64 | 288 | 8.7 | 20.0 | 0.00 | 0.00 | 0.00 | 33 | 1008.0 |
| 20260504172505 | 64 | 304 | 6.1 | 21.7 | 0.00 | 0.00 | 0.00 | 32 | 1008.1 |
| 20260504171503 | 64 | 280 | 7.8 | 24.3 | 0.00 | 0.00 | 0.00 | 33 | 1008.1 |
| 20260504170504 | 63 | 353 | 13.9 | 24.3 | 0.00 | 0.00 | 0.00 | 33 | 1008.2 |
| 20260504150503 | 59 | 310 | 12.2 | 20.0 | 0.00 | 0.00 | 0.00 | 41 | 1009.3 |
| 20260504140504 | 57 | 293 | 10.4 | 20.0 | 0.00 | 0.00 | 0.00 | 45 | 1009.9 |
| 20260504130503 | 53 | 274 | 7.8 | 14.8 | 0.00 | 0.00 | 0.00 | 52 | 1010.2 |
| 20260504110503 | 47 | 284 | 5.2 | 8.7 | 0.00 | 0.00 | 0.00 | 59 | 1010.7 |
| 20260504081504 | 45 | 291 | 8.7 | 13.0 | 0.00 | 0.00 | 0.00 | 60 | 1010.5 |
| 20260504080504 | 44 | 285 | 7.8 | 13.0 | 0.00 | 0.00 | 0.00 | 60 | 1010.5 |
| 20260504050503 | 42 | 282 | 5.2 | 8.7 | 0.00 | 0.02 | 0.00 | 58 | 1010.5 |
| 20260504044504 | 41 | 282 | 6.1 | 10.4 | 0.00 | 0.02 | 0.00 | 59 | 1010.7 |
| 20260504043504 | 40 | 282 | 2.6 | 6.1 | 0.00 | 0.02 | 0.00 | 64 | 1010.7 |
| 20260504042504 | 39 | 282 | 2.6 | 7.0 | 0.00 | 0.02 | 0.00 | 67 | 1010.7 |
| 20260504041504 | 36 | 283 | 2.6 | 6.1 | 0.00 | 0.02 | 0.00 | 77 | 1010.6 |
| 20260504040503 | 36 | 261 | 0.0 | 6.1 | 0.00 | 0.02 | 0.00 | 80 | 1010.5 |
| 20260504035504 | 34 | 277 | 1.7 | 5.2 | 0.00 | 0.02 | 0.02 | 82 | 1010.5 |
| 20260504032503 | 34 | 277 | 1.7 | 2.6 | 0.00 | 0.02 | 0.02 | 84 | 1010.4 |
| 20260504031504 | 34 | 278 | 1.7 | 2.6 | 0.00 | 0.02 | 0.02 | 82 | 1010.4 |
| 20260504030504 | 35 | 281 | 0.0 | 0.0 | 0.00 | 0.02 | 0.02 | 81 | 1010.3 |
| 20260504025504 | 35 | 281 | 0.0 | 0.0 | 0.00 | 0.02 | 0.02 | 82 | 1010.3 |
| 20260504024504 | 35 | 281 | 0.0 | 0.0 | 0.00 | 0.02 | 0.02 | 81 | 1010.3 |
| 20260504023504 | 35 | 281 | 0.0 | 0.0 | 0.00 | 0.02 | 0.02 | 82 | 1010.3 |
| 20260504022504 | 36 | 281 | 0.0 | 0.0 | 0.00 | 0.02 | 0.02 | 81 | 1010.3 |
| 20260504021504 | 36 | 281 | 0.0 | 0.0 | 0.00 | 0.04 | 0.02 | 78 | 1010.3 |
| 20260504020503 | 37 | 281 | 0.0 | 0.0 | 0.00 | 0.04 | 0.02 | 78 | 1010.2 |
| 20260504015503 | 37 | 281 | 0.0 | 0.0 | 0.00 | 0.05 | 0.02 | 76 | 1010.2 |
| 20260504014504 | 38 | 281 | 0.0 | 0.0 | 0.00 | 0.05 | 0.02 | 74 | 1010.2 |
| 20260504013504 | 39 | 281 | 0.0 | 0.0 | 0.00 | 0.08 | 0.02 | 71 | 1010.0 |
| 20260504012504 | 40 | 281 | 0.9 | 2.6 | 0.00 | 0.09 | 0.02 | 69 | 1010.0 |
| 20260504011504 | 41 | 244 | 0.0 | 0.0 | 0.00 | 0.09 | 0.02 | 64 | 1009.9 |
| 20260504010503 | 42 | 244 | 0.0 | 0.0 | 0.00 | 0.09 | 0.02 | 63 | 1009.7 |
| 20260504004504 | 43 | 258 | 0.0 | 0.0 | 0.00 | 0.10 | 0.02 | 57 | 1009.3 |
| 20260504003504 | 44 | 258 | 0.0 | 0.0 | 0.00 | 0.10 | 0.02 | 56 | 1009.3 |
| 20260504002504 | 45 | 258 | 0.0 | 0.0 | 0.00 | 0.10 | 0.02 | 53 | 1009.1 |
| 20260504001504 | 46 | 258 | 0.0 | 8.7 | 0.00 | 0.10 | 0.02 | 52 | 1009.0 |
| 20260504000503 | 46 | 265 | 0.0 | 7.8 | 0.00 | 0.10 | 0.02 | 51 | 1008.9 |
| 20260503235503 | 47 | 282 | 0.0 | 6.1 | 0.00 | 0.10 | 0.02 | 51 | 1008.8 |
| 20260503234504 | 47 | 265 | 2.6 | 7.8 | 0.00 | 0.10 | 0.02 | 48 | 1008.8 |
| 20260503232504 | 47 | 269 | 5.2 | 15.6 | 0.00 | 0.10 | 0.02 | 46 | 1008.6 |
| 20260503231504 | 48 | 278 | 4.3 | 11.3 | 0.00 | 0.10 | 0.02 | 46 | 1008.5 |
| 20260503230504 | 48 | 284 | 0.9 | 7.8 | 0.00 | 0.10 | 0.02 | 47 | 1008.4 |
| 20260503225504 | 47 | 274 | 0.9 | 7.8 | 0.00 | 0.10 | 0.02 | 48 | 1008.4 |
| 20260503223505 | 47 | 271 | 1.7 | 12.2 | 0.00 | 0.15 | 0.02 | 47 | 1008.4 |
| 20260503221503 | 47 | 266 | 6.1 | 10.4 | 0.00 | 0.15 | 0.02 | 47 | 1008.2 |
| 20260503220504 | 47 | 271 | 6.1 | 15.6 | 0.00 | 0.15 | 0.02 | 47 | 1008.1 |
| 20260503215504 | 47 | 264 | 7.8 | 15.6 | 0.00 | 0.15 | 0.02 | 46 | 1008.1 |
| 20260503213504 | 47 | 275 | 10.4 | 19.1 | 0.00 | 0.15 | 0.02 | 44 | 1008.1 |
| 20260503212504 | 48 | 247 | 11.3 | 19.1 | 0.00 | 0.15 | 0.02 | 43 | 1007.9 |
| 20260503211503 | 48 | 251 | 7.8 | 17.4 | 0.00 | 0.15 | 0.02 | 44 | 1007.7 |
| 20260503210504 | 48 | 271 | 7.8 | 17.4 | 0.00 | 0.15 | 0.02 | 45 | 1007.6 |
| 20260503205504 | 48 | 262 | 4.3 | 20.0 | 0.00 | 0.15 | 0.02 | 45 | 1007.6 |
| 20260503204504 | 48 | 261 | 7.0 | 14.8 | 0.00 | 0.15 | 0.02 | 44 | 1007.5 |
| 20260503203504 | 48 | 249 | 8.7 | 17.4 | 0.00 | 0.17 | 0.02 | 45 | 1007.5 |
| 20260503202504 | 48 | 263 | 5.2 | 20.0 | 0.00 | 0.18 | 0.02 | 46 | 1007.4 |
| 20260503201504 | 47 | 260 | 11.3 | 20.9 | 0.00 | 0.18 | 0.02 | 45 | 1007.4 |
| 20260503200503 | 47 | 245 | 10.4 | 20.0 | 0.00 | 0.18 | 0.02 | 45 | 1007.3 |
| 20260503193503 | 48 | 245 | 9.6 | 19.1 | 0.00 | 0.24 | 0.02 | 46 | 1007.2 |
| 20260503192503 | 49 | 260 | 8.7 | 15.6 | 0.00 | 0.24 | 0.02 | 44 | 1007.1 |
| 20260503191504 | 48 | 244 | 7.0 | 24.3 | 0.00 | 0.24 | 0.02 | 43 | 1007.3 |
| 20260503190504 | 48 | 308 | 11.3 | 20.0 | 0.00 | 0.24 | 0.02 | 44 | 1007.2 |
| 20260503185504 | 47 | 280 | 10.4 | 18.2 | 0.00 | 0.24 | 0.02 | 46 | 1007.1 |